KD9OPI Weather Reports


time (UTC)temp
C
wind
direction
speed
KPH
gust
KPH
rain 1hr
cm
rain 24hr
cm
rain mn
cm
humidity
%
barometer
mb
20260902170823 33 239 4.8 17.7 0.00 0.00 0.00 63 1019.3
20260902170330 33 200 4.8 14.5 0.00 0.00 0.00 65 1019.3
20260902165816 33 247 4.8 14.5 0.00 0.00 0.00 62 1019.4
20260902165324 33 272 4.8 16.1 0.00 0.00 0.00 64 1019.4
20260902164831 33 240 8.0 16.1 0.00 0.00 0.00 64 1019.5
20260902164330 32 243 6.4 22.5 0.00 0.00 0.00 63 1019.5
20260902163837 32 236 6.4 22.5 0.00 0.00 0.00 64 1019.5
20260902163323 32 256 6.4 19.3 0.00 0.00 0.00 64 1019.6
20260902162831 32 200 3.2 16.1 0.00 0.00 0.00 64 1019.5
20260902162336 32 225 4.8 16.1 0.00 0.00 0.00 65 1019.6
20260902161824 32 254 8.0 16.1 0.00 0.00 0.00 66 1019.6
20260902161334 32 209 8.0 16.1 0.00 0.00 0.00 65 1019.7
20260902160822 32 233 3.2 16.1 0.00 0.00 0.00 68 1019.7
20260902160330 32 226 8.0 16.1 0.00 0.00 0.00 66 1019.8
20260902155838 32 243 4.8 12.9 0.00 0.00 0.00 66 1019.7
20260902155324 32 254 4.8 17.7 0.00 0.00 0.00 68 1019.7
20260902154848 32 239 6.4 12.9 0.00 0.00 0.00 66 1019.8
20260902154336 32 224 3.2 9.7 0.00 0.00 0.00 68 1019.7
20260902153822 32 223 4.8 12.9 0.00 0.00 0.00 68 1019.8
20260902153327 31 226 6.4 12.9 0.00 0.00 0.00 69 1019.8
20260902152834 31 272 6.4 9.7 0.00 0.00 0.00 69 1019.7
20260902152319 31 253 3.2 12.9 0.00 0.00 0.00 70 1019.7
20260902151828 31 164 4.8 12.9 0.00 0.00 0.00 69 1019.8
20260902151334 31 244 1.6 17.7 0.00 0.00 0.00 71 1019.8
20260902150822 31 214 6.4 14.5 0.00 0.00 0.00 70 1019.8
20260902150355 31 283 4.8 14.5 0.00 0.00 0.00 72 1019.8
20260902145822 31 207 4.8 12.9 0.00 0.00 0.00 71 1019.8
20260902145327 30 261 4.8 12.9 0.00 0.00 0.00 72 1019.8
20260902144813 30 273 6.4 12.9 0.00 0.00 0.00 71 1019.8
20260902144337 30 247 3.2 11.3 0.00 0.00 0.00 72 1019.8
20260902143845 30 150 3.2 11.3 0.00 0.00 0.00 73 1019.9
20260902143323 30 158 3.2 14.5 0.00 0.00 0.00 73 1019.9
20260902142830 30 220 6.4 14.5 0.00 0.00 0.00 72 1019.9
20260902142331 30 174 4.8 9.7 0.00 0.00 0.00 73 1020.0
20260902141817 30 198 3.2 9.7 0.00 0.00 0.00 74 1019.9
20260902141324 30 213 1.6 8.0 0.00 0.00 0.00 75 1019.9
20260902140829 29 179 3.2 8.0 0.00 0.00 0.00 75 1019.9
20260902140316 29 219 3.2 9.7 0.00 0.00 0.00 76 1020.1
20260902135825 28 212 4.8 9.7 0.00 0.00 0.00 76 1020.1
20260902135351 28 212 3.2 6.4 0.00 0.00 0.00 78 1020.2
20260902134838 28 221 1.6 8.0 0.00 0.00 0.00 79 1020.2
20260902134323 28 239 4.8 9.7 0.00 0.00 0.00 77 1020.3
20260902133832 28 240 6.4 9.7 0.00 0.00 0.00 78 1020.3
20260902133320 28 224 1.6 8.0 0.00 0.00 0.00 80 1020.3
20260902132832 27 257 6.4 8.0 0.00 0.00 0.00 79 1020.3
20260902132340 27 262 3.2 8.0 0.00 0.00 0.00 80 1020.3
20260902131827 27 228 3.2 8.0 0.00 0.00 0.00 81 1020.2
20260902131335 27 143 3.2 6.4 0.00 0.00 0.00 81 1020.2
20260902130823 27 155 1.6 3.2 0.00 0.00 0.00 82 1020.3
20260902130326 27 178 0.0 6.4 0.00 0.00 0.00 83 1020.2
20260902125836 26 257 1.6 6.4 0.00 0.00 0.00 84 1020.2
20260902125318 26 224 0.0 1.6 0.00 0.00 0.00 85 1020.3
20260902124845 26 233 0.0 1.6 0.00 0.00 0.00 86 1020.2
20260902124333 26 247 0.0 1.6 0.00 0.00 0.00 86 1020.2
20260902123821 25 241 0.0 1.6 0.00 0.00 0.00 87 1020.2
20260902123328 25 148 0.0 1.6 0.00 0.00 0.00 90 1020.2
20260902122818 24 148 0.0 1.6 0.00 0.00 0.00 90 1020.1
20260902122350 24 126 0.0 0.0 0.00 0.00 0.00 91 1020.3
20260902121837 23 125 0.0 0.0 0.00 0.00 0.00 93 1020.3
20260902121325 23 124 0.0 0.0 0.00 0.00 0.00 94 1020.1
20260902120833 23 126 0.0 0.0 0.00 0.00 0.00 94 1020.3
20260902120321 23 126 0.0 0.0 0.00 0.00 0.00 94 1020.2
20260902115830 22 126 0.0 0.0 0.00 0.00 0.00 94 1020.2
20260902115338 22 126 0.0 0.0 0.00 0.00 0.00 94 1020.1
20260902114823 22 126 0.0 0.0 0.00 0.00 0.00 94 1020.1
20260902114328 22 126 0.0 0.0 0.00 0.00 0.00 94 1020.0
20260902113832 22 126 0.0 0.0 0.00 0.00 0.00 94 1020.0
20260902113339 22 126 0.0 0.0 0.00 0.00 0.00 94 1019.9
20260902112827 22 126 0.0 0.0 0.00 0.00 0.00 94 1019.9
20260902112352 22 126 0.0 0.0 0.00 0.00 0.00 94 1019.9
20260902111819 22 126 0.0 0.0 0.00 0.00 0.00 93 1019.8
20260902111327 22 126 0.0 0.0 0.00 0.00 0.00 93 1019.8
20260902110834 22 126 0.0 0.0 0.00 0.00 0.00 93 1019.6
20260902110322 22 126 0.0 0.0 0.00 0.00 0.00 93 1019.7
20260902105828 22 126 0.0 0.0 0.00 0.00 0.00 93 1019.7
20260902105334 22 126 0.0 0.0 0.00 0.00 0.00 93 1019.6
20260902104824 22 126 0.0 0.0 0.00 0.00 0.00 93 1019.5
20260902104332 22 126 0.0 0.0 0.00 0.00 0.00 92 1019.6
20260902103840 23 126 0.0 0.0 0.00 0.00 0.00 92 1019.5
20260902103329 23 126 0.0 0.0 0.00 0.00 0.00 92 1019.5
20260902102836 23 126 0.0 0.0 0.00 0.00 0.00 92 1019.4
20260902102340 23 125 0.0 0.0 0.00 0.00 0.00 92 1019.3
20260902101829 23 125 0.0 0.0 0.00 0.00 0.00 92 1019.3
20260902101318 23 125 0.0 0.0 0.00 0.00 0.00 92 1019.4
20260902100843 23 125 0.0 0.0 0.00 0.00 0.00 92 1019.2
20260902100320 23 125 0.0 0.0 0.00 0.00 0.00 92 1019.2
20260902095824 23 125 0.0 0.0 0.00 0.00 0.00 91 1019.2
20260902095353 23 125 0.0 0.0 0.00 0.00 0.00 91 1019.1
20260902094834 23 125 0.0 0.0 0.00 0.00 0.00 91 1019.0
20260902094320 23 125 0.0 0.0 0.00 0.00 0.00 91 1019.1
20260902093848 23 125 0.0 0.0 0.00 0.00 0.00 91 1019.1
20260902093401 23 125 0.0 0.0 0.00 0.00 0.00 91 1019.1
20260902092816 23 125 0.0 0.0 0.00 0.00 0.00 91 1019.1
20260902092355 23 125 0.0 0.0 0.00 0.00 0.00 91 1019.1
20260902091830 23 125 0.0 0.0 0.00 0.00 0.00 91 1019.1
20260902091337 23 125 0.0 0.0 0.00 0.00 0.00 91 1019.0
20260902090836 23 125 0.0 0.0 0.00 0.00 0.00 91 1019.0
20260902090317 23 125 0.0 0.0 0.00 0.00 0.00 91 1019.0
20260902085837 23 125 0.0 0.0 0.00 0.00 0.00 91 1018.9
20260902085340 23 125 0.0 0.0 0.00 0.00 0.00 92 1019.0
20260902084855 23 125 0.0 0.0 0.00 0.00 0.00 92 1019.0
20260902084336 23 125 0.0 0.0 0.00 0.00 0.00 92 1018.9
20260902083823 23 125 0.0 0.0 0.00 0.00 0.00 92 1018.9
20260902083343 23 125 0.0 0.0 0.00 0.00 0.00 92 1018.9
20260902082828 23 125 0.0 0.0 0.00 0.00 0.00 92 1018.8
20260902082314 23 125 0.0 0.0 0.00 0.00 0.00 92 1018.8
20260902081857 23 125 0.0 0.0 0.00 0.00 0.00 93 1018.7
20260902081333 23 212 0.0 0.0 0.00 0.00 0.00 93 1018.7
20260902080831 23 212 0.0 0.0 0.00 0.00 0.00 93 1018.7
20260902080337 23 209 0.0 0.0 0.00 0.00 0.00 93 1018.7
20260902075818 23 209 0.0 0.0 0.00 0.00 0.00 93 1018.6